Regional Weather Roundup
Issued by NWS Kansas City/Pleasant Hill, MO

Home | Current Version | Previous Version | Text Only | Print | Product List | Glossary On
Versions: 1 2 3 4 5 6 7 8 9 10 11 12 13 14 15 16 17 18 19 20 21 22 23 24 25 26 27 28 29 30 31 32 33 34 35 36 37 38 39 40 41 42 43 44 45 46 47 48 49 50
000
ASUS43 KEAX 272211
RWREAX

WEATHER ROUNDUP FOR EASTERN KANSAS AND NORTHWEST MISSOURI
NATIONAL WEATHER SERVICE KANSAS CITY/PLEASANT HILL MO
400 PM CST FRI FEB 27 2015

KSZ040-057-103>105-MOZ028-029-037-043-272300-
...KANSAS CITY METROPOLITAN AREA...

CITY           SKY/WX    TMP DP  RH WIND       PRES   REMARKS
K.C. INTL      CLOUDY    17   0  47 SE5       30.54F WCI  10
K.C. DOWNTOWN  PTSUNNY   19   0  43 CALM      30.57F
LEES SUMMIT    PTSUNNY   18   0  45 E3        30.55F
OLATHE - IXD   CLOUDY    19   0  43 VRB6      30.54S WCI  11
OLATHE - OJC   CLOUDY    19  -2  39 SE3       30.53S
LAWRENCE       CLOUDY    18   0  45 E3        30.57S

$$

MOZ001>008-011>017-020>025-030>033-038>040-044>046-053-054-272300-
...NORTHERN AND CENTRAL MISSOURI...

CITY           SKY/WX    TMP DP  RH WIND       PRES   REMARKS
ST. JOSEPH     MOSUNNY   19  -1  41 SE5       30.56F WCI  12
MOSBY          MOCLDY    19   1  45 S5        30.57F WCI  13
WARRENSBURG    PTSUNNY   19   3  49 NE6       30.57S WCI  11
WHITEMAN AFB   CLOUDY    20   0  42 E6        30.55F WCI  12
CLINTON        PTSUNNY   23   3  42 E6        30.57S WCI  16
SEDALIA        PTSUNNY   21   1  41 NE5       30.57F WCI  15
WARSAW         NOT AVBL
MARSHALL       PTSUNNY   21   5  49 E3        30.60
CHILLICOTHE      N/A     17   4  56 E6        30.59F WCI   9
MOBERLY        PTSUNNY   18   1  49 NE7       30.59F WCI   8
KIRKSVILLE     SUNNY     17   3  54 E3        30.57F

$$

MOZ041-047>049-056>058-063>065-088>090-097-272300-
...EASTERN AND SOUTHERN MISSOURI...

CITY           SKY/WX    TMP DP  RH WIND       PRES   REMARKS
ST. LOUIS INTL MOSUNNY   19   1  45 N6        30.62F WCI  11
SPIRIT OF STL  PTSUNNY   20  -2  38 N9        30.61F WCI   9
COLUMBIA       MOSUNNY   21   4  47 N10       30.56F WCI  10
JEFFERSON CITY PTSUNNY   23  -2  33 E6        30.59F WCI  16
MEXICO         MOSUNNY   18   7  62 E6        30.60S WCI   9
HANNIBAL       SUNNY     16  -8  35 N3        30.61F
ROLLA          CLOUDY    20  -2  38 CALM      30.53R
LEBANON        CLOUDY    19   0  42 NE5       30.52S WCI  13
OSAGE BEACH    CLOUDY    21  -2  35 E3        30.56S
SPRINGFIELD    CLOUDY    22   2  42 NE7       30.50F WCI  13
BRANSON        LGT SNOW  19   9  63 CALM      30.52F
NEVADA         CLOUDY    19   1  45 NW3       30.55F
JOPLIN         CLOUDY    22   2  42 E7        30.51F WCI  13
WEST PLAINS    CLOUDY    21  -1  38 E3        30.54R

$$

IAZ060-094-KSZ022-034>040-054-083-096-NEZ052-066-093-272300-
...KANSAS...SOUTHEAST NEBRASKA AND IOWA...

CITY           SKY/WX    TMP DP  RH WIND       PRES   REMARKS
TOPEKA         PTSUNNY   19   0  43 CALM      30.57R
MANHATTAN      CLOUDY    19   1  45 S6        30.53F WCI  11
EMPORIA        CLOUDY    18   0  45 VRB5      30.51F WCI  11
CHANUTE        FLURRIES  19   5  54 VRB5      30.54S WCI  12
WICHITA        LGT SNOW  16   9  74 SE6       30.50S WCI   7
OMAHA          MOSUNNY   19   2  47 CALM      30.53F
LINCOLN        SUNNY     20  -2  38 CALM      30.50F
FALLS CITY     MOSUNNY   19  -4  36 SE6       30.53F WCI  11
LAMONI         SUNNY     13   1  59 CALM      30.54F
DES MOINES     MOSUNNY   13  -3  49 SW3       30.58F

$$



USA.gov is the U.S. government's official web portal to all federal, state and local government web resources and services.